Regional Weather Roundup
Issued by NWS

Home | Current Version | Previous Version | Graphics & Text | Print | Product List | Glossary On
Versions: 1 2 3 4 5 6 7 8 9 10 11 12 13 14 15 16 17 18 19 20 21 22 23 24 25 26 27 28 29 30 31 32 33 34 35 36 37 38 39 40 41 42 43 44 45 46 47 48 49 50
000
ASUS43 KLOT 242108
RWRIL

ILLINOIS REGIONAL WEATHER ROUNDUP
NATIONAL WEATHER SERVICE CHICAGO/ROMEOVILLE IL
400 PM CDT TUE APR 24 2018

NOTE: "FAIR" INDICATES FEW OR NO CLOUDS BELOW 12,000 FEET WITH NO
SIGNIFICANT WEATHER AND/OR OBSTRUCTIONS TO VISIBILITY.

* THESE STATIONS ARE NOT UNDER NWS QUALITY CONTROL. THEY ALSO MAY NOT
  REPORT WEATHER SUCH AS PRECIPITATION OR FOG.

ILZ001-002-007-009-015-016-024-242200-
NORTHWEST ILLINOIS

CITY           SKY/WX    TMP DP  RH WIND       PRES   REMARKS
MOLINE         FAIR      76  27  16 NW8       29.97F
STERLING*      FAIR      75  34  22 N9G16     29.97F
SAVANNA*       FAIR      74  26  16 N12G17    29.98F
$$

ILZ003-004-008-010-011-017-018-242200-
NORTH CENTRAL ILLINOIS

CITY           SKY/WX    TMP DP  RH WIND       PRES   REMARKS
ROCKFORD       FAIR      73  34  23 N12       29.98F
FREEPORT*      FAIR      72  25  17 N10G23    30.00F
ROCHELLE*      FAIR      72  39  30 N9G18     29.97F
DE KALB*       FAIR      71  47  41 N10       29.98S
PERU*          FAIR      75  40  28 N12G20    29.96F
$$

ILZ005-006-012>014-019>023-242200-
NORTHEAST ILLINOIS

CITY           SKY/WX    TMP DP  RH WIND       PRES   REMARKS
CHICAGO-OHARE  FAIR      63  47  55 NE10      29.97F
CHICAGO-MIDWAY PTSUNNY   62  49  62 NE10      29.98F
AURORA         FAIR      69  48  47 NE15      29.96F
LANSING*       FAIR      59  51  74 NE10      29.99S
JOLIET*        FAIR      68  51  53 NE3       29.96F HAZE
WAUKEGAN       FAIR      58  48  69 NE8       29.99F
DUPAGE AIRPORT FAIR      67  50  54 NE13G18   29.96F
KANKAKEE*      PTSUNNY   66  49  54 N8        29.97S
WHEELING       FAIR      61  48  62 E10       30.00F
MORRIS*        FAIR      71  48  45 NE7       29.95F
ROMEOVILLE*    FAIR      66  49  54 NE13G21   29.96F
NORTHERLY ISL    N/A     50  43  77 MISG        N/A
$$

LMZ740>746-242200-
SOUTHERN LAKE MICHIGAN

STATION/POSITION SKY/WX   TEMP    WIND        PRES    VSBY  WAVE
                          AIR SEA DIR/SP/G                  HT/PER
                          (F)     (DEG/KT/KT) (MB)    (MI)  (FT/S)
HARRISON CRIB              42     350/ 10/ 11   N/A
BURNHAM HARBOR             48     350/  9/ 12   N/A
CALUMET HARBOR             48     340/ 10/ 16 1015.4F
BURNS HARBOR               45      30/  5/  6 1016.6F
MICHIGAN CITY              43      40/  6/  7   N/A
ST. JOSEPH                 43 43  340/  6/  8 1016.4          1/ 3
$$

ILZ025>027-034>036-040-047-049-050-058-095>099-242200-
WEST-CENTRAL ILLINOIS

CITY           SKY/WX    TMP DP  RH WIND       PRES   REMARKS
QUINCY         SUNNY     74  37  26 N10       29.99F
GALESBURG*     FAIR      77  38  24 N15       29.98F
MACOMB*        MOSUNNY   74  35  23 NW12G22   30.00F
JACKSONVILLE*  SUNNY     71  44  37 N13       29.97F
PITTSFIELD*    PTSUNNY   74  42  31 NW14      29.99F
$$

ILZ028>032-037-038-041>044-048-051>054-059>061-242200-
CENTRAL ILLINOIS

CITY           SKY/WX    TMP DP  RH WIND       PRES   REMARKS
PONTIAC        FAIR      69  50  49 NE8       29.96F
BLOOMINGTON    FAIR      68  52  56 NE14      29.97F
DECATUR        CLOUDY    63  52  67 N10       29.96F
PEORIA         FAIR      75  41  29 VRB7G16   29.95F
LACON*         FAIR      73  38  28 N7        29.95F
LINCOLN*       FAIR      70  53  56 N5        29.96F
SPRINGFIELD    FAIR      72  50  45 N9        29.97F
TAYLORVILLE    PTSUNNY   65  51  61 N18       29.97F
$$

ILZ033-039-045-046-055>057-062-063-242200-
EAST-CENTRAL ILLINOIS

CITY           SKY/WX    TMP DP  RH WIND       PRES   REMARKS
CHAMPAIGN      CLOUDY    61  53  75 N15       29.96F
DANVILLE*      CLOUDY    60  52  75 N12       29.92F
RANTOUL*       CLOUDY    63  54  72 N9        29.96F
MATTOON        CLOUDY    59  53  80 N14       29.94F
PARIS*         CLOUDY    60  53  77 N6        29.94F
$$

ILZ079-100>102-242200-
SOUTHWEST ILLINOIS

CITY           SKY/WX    TMP DP  RH WIND       PRES   REMARKS
ALTON          PTSUNNY   70  54  56 N14       29.98F
BELLEVILLE     CLOUDY    65  54  67 NW9       29.97F
CAHOKIA*       CLOUDY    67  52  58 N8        29.98F
SPARTA*        CLOUDY    61  56  83 NW6       29.99F
$$

ILZ064>066-069>071-074>076-080>082-084>086-088>090-092>094-242200-
SOUTH-CENTRAL ILLINOIS

CITY           SKY/WX    TMP DP  RH WIND       PRES   REMARKS
CARBONDALE     CLOUDY    61  54  77 NW12G22   29.96F
CAIRO*         CLOUDY    62  56  82 W13       29.96F
EFFINGHAM*     CLOUDY    61  54  78 NW8G16    29.97S
MARION         CLOUDY    63  52  67 NW9       29.96F
MT. VERNON       N/A     62  53  72 CALM      29.95F
CENTRALIA*     CLOUDY    64  55  73 NW14      29.95F
SALEM*         CLOUDY    64  54  69 N10       29.96F
METROPOLIS*    CLOUDY    64  56  73 W8        29.95S
$$

ILZ067-068-072-073-078-083-087-091-242200-
SOUTHEAST ILLINOIS

CITY           SKY/WX    TMP DP  RH WIND       PRES   REMARKS
LAWRENCEVILLE  CLOUDY    60  53  77 MISG      29.94S
FLORA*         CLOUDY    62  54  74 N7        29.95F
FAIRFIELD*     CLOUDY    61  54  77 N7        29.94S
HARRISBURG*    CLOUDY    61  55  81 N7        29.95S
ROBINSON*      CLOUDY    59  54  83 NE8       29.94F
CARMI*         CLOUDY    61  55  80 N8        29.93F
$$

ABBREVIATIONS USED IN REMARKS
   TC - TEMPERATURE IN CELSIUS
  WCI - WIND CHILL INDEX
   HX - HEAT INDEX
  VSB - VISIBILITY
$$




USA.gov is the U.S. government's official web portal to all federal, state and local government web resources and services.